Location: Ripley
(48.3812°N, 115.4473°W)
Time: 01:30:06
(UTC+00:00)

EO-79 - Pass Details

Date: 06 July 2022
Orbit: 588 x 603 km, 98.0° (Epoch: 15 August)

Event Time Altitude Azimuth Distance (km) Brightness Sun altitude
Rises 08:14:18 0° 30° (NNE) 2,861 ? -18.7°
Reaches altitude 10° 08:17:23 10° 55° (NE) 1,955 ? -18.6°
Maximum altitude 08:19:47 15° 90° (E) 1,663 ? -18.6°
Enters shadow 08:21:56 11° 121° (ESE) 1,895 ? -18.5°
